User: anonymous   Login
Location: ?????
(30.2541°N, 31.0910°E)
Time: 22:52:40
(UTC+00:00)
Language:

YAOGAN 6 - Orbit

View from above orbital plane
View from above orbital plane
View from above satellite
View from above satellite

Ground track
Ground track

The orbit data is extracted from the following two-line orbital elements,

1 34839U 09021A   23031.48833653  .00007392  00000-0  23734-3 0  9991
2 34839  97.1096   6.6607 0024024 195.5809 164.4697 15.32298257766117
Epoch (UTC): 31 January 2023 11:43:12
Eccentricity: 0.0024024
inclination: 97.1096°
perigee height: 452 km
apogee height: 485 km
right ascension of ascending node: 6.6607°
argument of perigee: 195.5809°
revolutions per day: 15.32298257
mean anomaly at epoch: 164.4697°
orbit number at epoch: 76611

The dashed part of the orbit path shows where the satellite is in the earth's shadow,  

DLR